User: anonymous
Location: Oshawa
(43.9000°N, 78.8670°W)
Time: 14:02:06
(UTC-04:00)
Language:

Thor Agena Rocket - Orbit

View from above orbital plane
View from above orbital plane
View from above satellite
View from above satellite

Ground track
Ground track

The orbit data is extracted from the following two-line orbital elements,

1 00733U 64002A   14233.38744262  .00000090  00000-0  51187-4 0  3061
2 00733 099.0132 355.3378 0032989 295.0378 101.1698 14.31882254634779
Epoch (UTC): 21 August 2014 09:17:55
Eccentricity: 0.0032989
inclination: 99.0132°
perigee height: 762 km
apogee height: 809 km
right ascension of ascending node: 355.3378°
argument of perigee: 295.0378°
revolutions per day: 14.31882254
mean anomaly at epoch: 101.1698°
orbit number at epoch: 63477

The dashed part of the orbit path shows where the satellite is in the earth's shadow,  

DLR